Location: Macksville High School
(37.9611°N, 99.9654°W)
Time: 01:21:34
(UTC+00:00)

Cosmos 1844 - Pass Details

Date: 17 January 2021
Orbit: 821 x 869 km, 70.9° (Epoch: 07 March)

Event Time Altitude Azimuth Distance (km) Brightness Sun altitude
Exits shadow 12:10:49 26° 325° (NW) 1,655 4.8 -20.0°
Maximum altitude 12:14:07 65° 252° (WSW) 955 3.7 -19.4°
Drops below altitude 10° 12:19:50 10° 171° (S) 2,502 6.4 -18.3°
Sets 12:22:18 0° 168° (SSE) 3,432 7.2 -17.8°
